Cloud_Cover
4 5 68 100 99 75 100 98 100 100 100 100 99 88 100 100 99 57 5 1 4 22 0 0 4 0 0 0 0 0 0 8 16 61 34 5 11 2 0 9 15 0 0 0 0 0 0 1 5
12 70 94 34 100 95 100 89 100 100 100 83 90 100 100 48 87 42 4 8 13 5 3 13 0 0 0 0 0 0 43 97 28 11 5 10 5 0 52 10 0 0 0 0 2 0 1 6 0
92 100 100 87 99 100 80 100 100 99 61 36 99 100 62 89 41 12 13 6 40 12 16 0 0 2 5 4 1 4 3 4 1 0 1 1 0 9 4 78 26 18 0 0 0 0 1 2 2
98 91 37 79 100 89 100 100 100 88 25 95 80 41 11 100 84 23 32 3 12 27 1 0 3 5 5 5 8 6 3 0 0 0 0 2 5 11 0 4 5 2 0 0 0 0 5 5 68
96 52 87 83 97 99 100 95 100 96 73 82 69 96 37 93 20 13 74 10 50 22 0 0 11 48 21 5 5 5 5 3 4 5 16 69 100 22 76 1 4 0 4 5 62 98 5 8 4
20 23 59 56 88 91 98 60 100 94 98 96 7 54 88 100 0 10 10 10 92 0 0 0 4 27 5 1 1 0 5 0 0 1 2 2 19 8 100 0 0 0 8 11 5 5 5 0 1
1 61 99 65 100 87 100 84 100 100 100 100 29 46 82 100 15 0 5 99 63 0 0 1 4 22 5 0 5 8 3 9 3 0 0 0 5 5 75 0 0 0 4 4 3 1 0 0 0
3 100 100 100 100 100 100 100 100 100 100 100 61 5 54 99 83 0 4 100 5 0 0 2 0 5 5 10 3 0 0 0 0 0 6 8 5 5 5 0 0 0 18 19 0 0 0 0 0
43 66 100 89 100 100 100 100 100 89 99 100 70 5 5 26 12 45 53 100 0 0 0 0 0 5 0 0 4 0 0 0 0 23 100 100 16 5 5 0 0 5 5 77 100 85 75 100 35
20 92 100 100 100 100 100 100 100 40 86 99 100 43 12 17 19 93 44 56 0 0 19 1 0 0 3 9 0 0 0 0 0 66 100 100 81 42 0 0 0 0 0 50 100 51 98 100 100
36 5 67 100 100 100 100 100 100 55 56 100 100 96 55 47 5 20 2 10 6 0 83 2 0 0 86 0 0 3 9 0 0 2 80 78 100 100 4 70 0 5 25 45 100 20 8 94 76
11 10 100 100 100 100 98 94 96 2 6 99 100 100 39 90 12 10 23 11 4 0 89 64 52 0 2 0 0 100 3 6 0 92 100 25 100 94 50 46 95 82 100 69 100 50 0 46 34
0 10 97 100 100 99 100 27 100 100 70 44 100 60 46 6 3 35 29 29 0 14 90 81 0 2 94 20 69 93 7 58 30 77 100 84 88 80 52 81 100 88 100 85 100 74 70 70 82
0 11 90 100 100 99 70 12 100 100 16 0 4 21 22 27 33 36 12 15 4 16 68 0 0 42 7 98 24 100 65 98 49 62 100 22 42 55 60 61 47 100 20 19 100 4 31 24 42
0 0 20 18 81 95 63 43 9 23 38 0 13 24 3 90 56 22 6 0 0 0 32 0 0 0 0 87 1 11 69 12 93 100 100 93 2 1 98 86 33 76 2 3 1 0 74 15 23
0 0 0 5 18 30 53 86 39 88 100 40 16 29 67 73 99 34 27 5 0 6 0 0 0 0 1 62 0 21 98 39 88 100 80 7 0 0 92 92 79 20 84 74 73 38 2 12 100
0 0 0 0 0 1 2 77 100 86 100 100 67 76 65 13 38 84 18 43 0 0 0 0 80 0 0 0 0 9 17 11 8 100 77 0 0 7 14 98 12 0 53 42 72 100 86 3 27
0 0 0 0 0 0 2 75 66 100 100 100 99 44 96 80 67 72 46 44 0 0 0 0 38 0 0 0 0 22 35 83 27 57 77 92 12 99 33 64 1 1 3 18 98 99 26 50 11
0 0 0 0 0 2 2 100 32 28 100 100 100 99 80 90 29 58 73 12 0 0 0 0 1 0 0 0 0 0 0 62 8 6 100 100 5 100 100 17 0 4 100 0 0 0 0 34 72
0 0 0 0 0 0 85 56 4 69 100 100 100 100 98 52 66 68 28 19 0 0 0 0 0 0 0 0 0 0 5 12 72 73 6 1 0 36 100 83 0 42 20 0 89 42 0 0 0
0 0 0 0 0 0 87 99 54 100 100 100 100 40 30 97 36 8 0 7 0 0 0 0 0 0 0 0 0 0 27 58 38 82 2 0 3 0 71 15 0 0 14 14 0 0 1 9 2
0 0 0 0 0 0 0 4 11 94 100 100 83 100 63 20 10 5 0 0 0 0 0 0 0 0 0 0 0 0 0 8 0 95 5 5 1 4 1 0 0 0 1 30 0 8 98 54 0
0 0 0 0 0 0 0 4 75 96 100 46 100 92 100 0 2 0 0 0 0 0 0 0 0 0 0 0 0 0 0 0 69 0 77 0 0 23 83 0 0 0 0 0 0 0 0 99 0
0 0 0 0 0 0 0 0 4 18 5 97 100 100 86 17 0 6 0 0 0 0 0 0 0 0 0 0 0 0 0 0 0 0 92 76 0 0 19 5 0 0 41 0 0 0 0 0 0
0 0 0 0 0 0 0 0 0 92 99 100 100 34 0 4 0 12 20 0 0 0 0 0 0 0 0 0 0 0 0 0 0 0 0 0 0 0 0 0 0 0 0 0 0 0 0 0 0
0 0 0 0 0 0 0 0 0 0 26 100 4 4 47 3 11 57 0 0 0 1 0 0 0 0 0 0 0 0 5 0 0 0 0 0 0 0 0 0 0 0 0 0 0 0 0 0 0
0 23 0 2 0 0 0 0 0 1 61 81 100 100 21 100 8 0 0 0 0 1 1 0 0 0 0 0 0 0 5 0 0 0 0 0 0 32 47 0 0 0 0 0 0 0 0 0 0
3 9 25 3 5 0 0 0 0 0 2 74 20 84 100 100 83 6 1 0 0 0 0 0 0 0 0 0 0 0 0 0 0 0 1 5 4 2 36 0 0 0 0 0 0 0 0 0 0
99 1 97 96 4 2 3 2 5 1 0 0 5 28 100 100 100 98 46 0 0 0 0 0 0 0 0 0 0 0 0 0 0 0 3 2 4 0 0 0 0 0 0 0 0 0 17 0 0
100 99 100 100 28 4 46 6 100 100 19 0 0 5 100 92 100 100 100 4 0 0 0 0 0 0 0 0 0 0 0 0 0 0 0 0 0 0 0 0 0 0 0 0 0 0 0 0 0